EW6956 Weather Reports


time (UTC)temp
F
wind
direction
speed
knots
gust
knots
rain 1hr
in
rain 24hr
in
rain mn
in
humidity
%
barometer
mb
20260510094603 56 44 0.0 0.0 0.00 0.00 0.00 1 1012.2
20260510093058 56 44 0.0 0.0 0.00 0.00 0.00 1 1012.2
20260510091545 57 44 0.0 0.0 0.00 0.00 0.00 1 1012.2
20260510090048 57 44 0.0 0.0 0.00 0.00 0.00 1 1012.2
20260510084551 57 44 0.0 0.0 0.00 0.00 0.00 1 1012.3
20260510083033 57 44 0.0 0.0 0.00 0.00 0.00 1 1012.2
20260510081538 57 44 0.0 0.0 0.00 0.00 0.00 1 1012.1
20260510080029 57 44 0.0 0.0 0.00 0.00 0.00 1 1011.9
20260510074520 57 44 0.0 0.0 0.00 0.00 0.00 1 1011.9
20260510073015 57 44 0.0 0.0 0.00 0.00 0.00 1 1011.5
20260510071512 57 44 0.0 0.0 0.00 0.00 0.00 1 1011.5
20260510070012 57 44 0.0 0.0 0.00 0.00 0.00 1 1011.9
20260510064506 57 44 0.0 0.0 0.00 0.00 0.00 1 1011.7
20260510063058 57 44 0.0 0.0 0.00 0.00 0.00 1 1011.8
20260510061555 57 44 0.0 0.0 0.00 0.00 0.00 1 1011.8
20260510060053 57 44 0.0 0.0 0.00 0.00 0.00 1 1012.0
20260510054544 56 44 0.0 0.0 0.00 0.00 0.00 1 1012.1
20260510053041 56 44 0.0 0.0 0.00 0.00 0.00 1 1011.9
20260510051535 57 44 0.0 0.0 0.00 0.00 0.00 4 1011.8
20260510050036 57 44 0.0 0.0 0.00 0.00 0.00 5 1011.7
20260510044532 57 44 0.0 0.0 0.00 0.01 0.00 10 1011.3
20260510043023 58 44 0.0 0.0 0.00 0.01 0.00 10 1011.2
20260510041518 58 44 0.0 0.0 0.00 0.01 0.00 15 1011.0
20260510040013 58 44 0.0 0.0 0.00 0.01 0.00 20 1010.9
20260510034509 59 44 0.0 0.0 0.00 0.01 0.00 28 1010.9
20260510033005 59 44 0.0 0.0 0.00 0.01 0.00 30 1011.0
20260510031624 60 44 0.0 0.0 0.00 0.01 0.00 34 1010.6
20260510024552 61 44 0.0 0.0 0.00 0.01 0.00 40 1010.2
20260510023047 62 44 0.0 0.0 0.00 0.01 0.00 44 1009.7
20260510021543 63 44 0.0 0.0 0.00 0.01 0.00 49 1009.5
20260510020044 64 44 0.0 0.0 0.00 0.01 0.00 53 1009.3
20260510014540 65 44 0.0 0.0 0.00 0.01 0.00 57 1009.0
20260510013031 67 44 0.0 0.0 0.00 0.01 0.00 60 1008.8
20260510011539 68 44 0.0 0.9 0.00 0.01 0.00 62 1008.8
20260510010030 70 18 0.0 0.9 0.00 0.01 0.00 61 1008.6
20260510004529 72 19 0.0 0.0 0.00 0.01 0.00 61 1008.3
20260510003030 74 360 0.0 0.9 0.00 0.01 0.00 58 1008.2
20260510001529 76 319 0.0 0.9 0.00 0.01 0.00 52 1008.1
20260510000053 77 319 0.0 0.0 0.00 0.01 0.00 47 1008.1
20260509234544 78 318 0.0 0.0 0.00 0.01 0.00 48 1008.0
20260509233031 80 97 0.0 0.9 0.00 0.01 0.00 47 1007.9
20260509231527 81 96 0.0 0.0 0.00 0.01 0.00 40 1008.0
20260509230022 81 115 0.0 0.0 0.00 0.01 0.00 38 1007.9
20260509224519 82 114 0.0 0.0 0.00 0.01 0.00 40 1008.0
20260509223015 83 86 0.0 0.0 0.00 0.01 0.00 32 1008.0
20260509221509 84 86 0.0 0.0 0.00 0.01 0.00 31 1007.8
20260509220004 84 217 0.0 0.0 0.00 0.01 0.00 29 1007.9
20260509214605 86 168 0.0 0.0 0.00 0.01 0.00 30 1007.8
20260509213057 85 190 0.0 0.0 0.00 0.01 0.00 27 1007.8
20260509211551 85 214 0.0 0.0 0.00 0.01 0.00 29 1008.0
20260509210053 85 198 0.0 0.0 0.00 0.01 0.00 30 1008.1
20260509204550 84 55 0.0 0.0 0.00 0.01 0.00 30 1008.2
20260509203039 84 164 0.0 0.0 0.00 0.01 0.00 30 1008.3
20260509201538 84 320 0.0 0.9 0.00 0.01 0.00 28 1008.6
20260509200034 83 180 0.0 1.7 0.00 0.01 0.00 30 1008.9
20260509194528 83 176 0.0 0.9 0.00 0.01 0.00 29 1008.9
20260509193026 83 96 0.0 0.9 0.00 0.01 0.00 29 1009.0
20260509191521 83 360 0.0 0.9 0.00 0.01 0.00 26 1009.2
20260509190012 83 71 0.0 0.0 0.00 0.01 0.00 31 1009.3
20260509184507 83 19 0.0 0.9 0.00 0.01 0.00 28 1009.4
20260509183009 82 52 0.0 0.0 0.00 0.01 0.00 28 1009.4
20260509181622 82 60 0.0 0.0 0.00 0.01 0.00 31 1009.3
20260509180055 81 167 0.0 0.0 0.00 0.01 0.00 41 1009.3
20260509174551 80 167 0.0 0.0 0.00 0.01 0.00 45 1009.4
20260509173058 80 167 0.0 0.0 0.00 0.01 0.00 53 1009.6
20260509171542 79 157 0.0 0.0 0.00 0.01 0.00 52 1009.9
20260509170039 78 177 0.0 0.9 0.00 0.01 0.00 56 1009.8
20260509164533 77 184 0.0 0.0 0.00 0.01 0.00 58 1009.9
20260509163028 75 219 0.0 0.9 0.00 0.01 0.00 59 1010.0
20260509161526 75 188 0.0 0.0 0.00 0.01 0.00 60 1010.0
20260509160020 73 192 0.0 0.0 0.00 0.01 0.00 60 1010.0
20260509154517 73 38 0.0 0.9 0.00 0.01 0.00 60 1010.0
20260509153027 73 126 0.0 0.0 0.00 0.01 0.00 60 1010.0
20260509151505 72 258 0.0 0.0 0.00 0.01 0.00 58 1009.9
20260509150001 71 107 0.0 0.0 0.00 0.01 0.00 59 1010.0
20260509144609 69 166 0.0 0.0 0.00 0.01 0.00 58 1010.1
20260509143117 69 180 0.0 0.9 0.00 0.01 0.00 58 1010.1
20260509141548 68 233 0.0 0.0 0.00 0.01 0.00 54 1010.1
20260509140045 65 233 0.0 0.0 0.00 0.01 0.00 50 1010.0
20260509134559 64 233 0.0 0.0 0.00 0.01 0.00 45 1009.9
20260509133043 62 233 0.0 0.0 0.00 0.01 0.00 40 1009.9
20260509131531 60 233 0.0 0.0 0.00 0.01 0.00 29 1009.8
20260509130030 59 233 0.0 0.0 0.00 0.01 0.00 18 1009.9
20260509124522 57 232 0.0 0.0 0.00 0.01 0.00 1 1009.7
20260509123019 55 232 0.0 0.0 0.00 0.01 0.00 1 1009.7
20260509121527 53 232 0.0 0.0 0.00 0.01 0.00 1 1009.6
20260509120010 52 232 0.0 0.0 0.00 0.01 0.00 1 1009.4
20260509114518 51 232 0.0 0.0 0.00 0.01 0.00 1 1009.1
20260509113109 51 232 0.0 0.0 0.00 0.01 0.00 1 1008.9
20260509111605 52 231 0.0 0.0 0.00 0.01 0.00 1 1008.7
20260509110051 52 231 0.0 0.0 0.00 0.01 0.00 1 1008.7
20260509104549 52 229 0.0 0.0 0.00 0.01 0.00 1 1008.7
20260509103054 52 229 0.0 0.0 0.00 0.01 0.00 1 1008.6
20260509101606 53 229 0.0 0.0 0.00 0.01 0.00 1 1008.4
20260509100040 53 229 0.0 0.0 0.00 0.01 0.00 1 1008.4